Sivas, Turkey

10:11 AM +03 on April 25, 2018 (GMT +0300)
Sivas

Weather History for LTAR - March, 2014

Change the Weather History Date:

Wednesday, March 12, 2014

  Actual Average Record
Temperature  
Mean Temperature 34 °F -  
Max Temperature 43 °F 51 °F - ()
Min Temperature 24 °F 33 °F - ()
Degree Days  
Heating Degree Days 32    
Moisture  
Dew Point 28 °F    
Average Humidity 79    
Maximum Humidity 100    
Minimum Humidity 44    
Precipitation  
Precipitation 0.01 in 0.07 in - ()
Sea Level Pressure  
Sea Level Pressure 29.80 in    
Wind  
Wind Speed 8 mph ()    
Max Wind Speed 21 mph    
Max Gust Speed -    
Visibility 6.3 miles    
Events Rain , Snow    
T = Trace of Precipitation, MM = Missing Value Source: Averaged Metar Reports

Daily Weather History Graph

Daily Weather History Graph

Search for Another Location

Airport or City:

Astronomy

Mar. 12, 2014 Rise Set
Actual Time 5:49 AM EET 5:35 PM EET
Civil Twilight 5:22 AM EET 6:02 PM EET
Nautical Twilight 4:51 AM EET 6:34 PM EET
Astronomical Twilight 4:19 AM EET 7:05 PM EET
Moon 1:47 PM EET (3/12) 3:07 AM EET (3/12)
Length of Visible Light 12h 40m
Length of Day
11h 46m
Waxing Gibbous, 83% of the Moon is Illuminated
Mar 12
Waxing Gibbous
Mar 16
Full
Mar 24
Last Quarter
Mar 30
New
Apr 7
First Quarter

Hourly Weather History & Observations

Time (EET) Temp. Windchill Dew Point Humidity Pressure Visibility Wind Dir Wind Speed Gust Speed Precip Events Conditions
12:50 AM 33.8 °F 29.6 °F 32.0 °F 93% 29.83 in 6.2 mi SW 4.6 mph - N/A   Mostly Cloudy
1:50 AM 33.8 °F 28.6 °F 32.0 °F 93% 29.83 in 6.2 mi West 5.8 mph - N/A   Overcast
2:50 AM 33.8 °F 29.6 °F 32.0 °F 93% 29.80 in 6.2 mi SW 4.6 mph - N/A   Overcast
3:50 AM 33.8 °F 30.8 °F 32.0 °F 93% 29.80 in 3.7 mi West 3.5 mph - N/A   Overcast
4:50 AM 33.8 °F 29.6 °F 32.0 °F 93% 29.80 in 2.5 mi WSW 4.6 mph - N/A   Overcast
5:50 AM 32.0 °F 25.6 °F 32.0 °F 100% 29.80 in 1.9 mi NW 6.9 mph - N/A   Overcast
6:50 AM 32.0 °F 26.4 °F 30.2 °F 93% 29.80 in 3.7 mi WNW 5.8 mph - N/A   Mostly Cloudy
7:50 AM 33.8 °F 25.3 °F 32.0 °F 93% 29.80 in 6.2 mi WNW 11.5 mph - N/A   Mostly Cloudy
8:00 AM 40 °F - 34 °F 70%  in 9 mi NNE 2.3 mph - -   Mostly Cloudy
8:50 AM 33.8 °F 25.3 °F 30.2 °F 87% 29.80 in 6.2 mi WNW 11.5 mph - N/A   Mostly Cloudy
9:00 AM 42 °F - 33 °F 60%  in 9 mi North 2.3 mph - -   Mostly Cloudy
9:50 AM 33.8 °F 25.3 °F 32.0 °F 93% 29.80 in 6.2 mi WNW 11.5 mph - N/A   Mostly Cloudy
10:00 AM 43 °F - 32 °F 55%  in 9 mi North 5.8 mph - -   Mostly Cloudy
10:50 AM 33.8 °F 23.2 °F 30.2 °F 87% 29.80 in 6.2 mi WNW 17.3 mph - N/A   Mostly Cloudy
11:00 AM 42 °F - 32 °F 57%  in 9 mi NNE 5.8 mph - -   Mostly Cloudy
11:50 AM 32.0 °F 21.2 °F 30.2 °F 93% 29.80 in 6.2 mi WNW 16.1 mph - N/A Rain Light Rain Showers
12:00 PM 41 °F - 30 °F 55%  in 9 mi NNE 5.8 mph - -   Mostly Cloudy
12:50 PM 30.2 °F 18.9 °F 28.4 °F 93% 29.77 in 5.0 mi NW 16.1 mph - N/A Snow Light Snow Showers
1:00 PM 40 °F - 29 °F 55%  in 9 mi North 6.9 mph - -   Mostly Cloudy
1:50 PM 30.2 °F 18.9 °F 28.4 °F 93% 29.77 in 5.0 mi NW 16.1 mph - N/A Snow Light Snow Showers
2:00 PM 38 °F - 29 °F 61%  in 6 mi NNE 5.8 mph - - Snow Light Snow Showers
2:50 PM 32.0 °F 20.5 °F 28.4 °F 87% 29.77 in 6.2 mi WNW 18.4 mph - N/A   Mostly Cloudy
3:00 PM 37 °F - 30 °F 66%  in 6 mi NNE 4.6 mph - - Snow Light Snow
3:50 PM 30.2 °F 18.5 °F 26.6 °F 86% 29.77 in 6.2 mi NNW 17.3 mph - N/A Snow Light Snow Showers
4:00 PM 37 °F - 28 °F 60%  in 9 mi NE 5.8 mph - - Snow Light Snow
4:03 PM 28.4 °F 15.1 °F 26.6 °F 93% 29.77 in 2.5 mi NNW 20.7 mph - N/A Snow Snow
4:50 PM 28.4 °F 16.2 °F 26.6 °F 93% 29.77 in 1.6 mi NNW 17.3 mph - N/A Snow Light Snow
5:00 PM 35 °F - 28 °F 66%  in 9 mi NNE 2.3 mph - -   Partly Cloudy
5:50 PM 24.8 °F 10.3 °F 23.0 °F 93% 29.80 in 5.0 mi North 20.7 mph - N/A   Mostly Cloudy
6:00 PM 32 °F - 23 °F 60%  in 9 mi NNE 6.9 mph - - Snow Light Snow
6:50 PM 26.6 °F 13.4 °F 19.4 °F 74% 29.83 in 6.2 mi North 18.4 mph - N/A   Mostly Cloudy
7:00 PM 32 °F - 18 °F 44%  in 9 mi ENE 6.9 mph - -   Mostly Cloudy
7:50 PM 24.8 °F 12.4 °F 21.2 °F 86% 29.83 in 6.2 mi NNW 15.0 mph - N/A   Mostly Cloudy
8:00 PM 32 °F - 22 °F 54%  in 9 mi ENE 2.3 mph - -   Partly Cloudy
8:50 PM 24.8 °F 12.4 °F 21.2 °F 86% 29.83 in 6.2 mi North 15.0 mph - N/A   Mostly Cloudy
9:50 PM 26.6 °F 15.2 °F 23.0 °F 86% 29.86 in 6.2 mi NNW 13.8 mph - N/A   Mostly Cloudy
10:50 PM 24.8 °F 11.1 °F 21.2 °F 86% 29.83 in 6.2 mi NNW 18.4 mph - N/A   Mostly Cloudy